EN

Hourly Weather Almaly

Today, 15 January, Friday

Time Temperature Precipitation Wind Pressure Humidity
00:00 -15°C° 0 mm 6 mps 744 mmHg 77%
01:00 -15°C° 0 mm 6 mps 743 mmHg 73%
02:00 -14°C° 0 mm 5 mps 743 mmHg 75%
03:00 -12°C° 0 mm 4 mps 743 mmHg 77%
04:00 -11°C° 0 mm 4 mps 742 mmHg 80%
05:00 -11°C° 0 mm 4 mps 742 mmHg 79%
06:00 -12°C° 0 mm 4 mps 741 mmHg 78%
07:00 -12°C° 0 mm 4 mps 741 mmHg 76%
08:00 -12°C° 0 mm 4 mps 741 mmHg 77%
09:00 -12°C° 0 mm 4 mps 741 mmHg 77%
10:00 -12°C° 0 mm 5 mps 740 mmHg 77%
11:00 -11°C° 0 mm 5 mps 740 mmHg 78%
12:00 -10°C° 0 mm 4 mps 740 mmHg 80%
13:00 -9°C° 0 mm 3 mps 739 mmHg 81%
14:00 -9°C° 0 mm 3 mps 739 mmHg 83%
15:00 -9°C° 0 mm 3 mps 739 mmHg 85%
16:00 -9°C° 0 mm 3 mps 738 mmHg 85%
17:00 -10°C° 0 mm 3 mps 737 mmHg 86%
18:00 -12°C° 0 mm 3 mps 737 mmHg 87%
19:00 -13°C° 0 mm 3 mps 736 mmHg 87%
20:00 -13°C° 0 mm 3 mps 736 mmHg 87%
21:00 -12°C° 0 mm 2 mps 736 mmHg 88%
22:00 -12°C° 0 mm 2 mps 735 mmHg 88%
23:00 -12°C° 0 mm 2 mps 735 mmHg 88%

Tomorrow, 16 January, Saturday

Time Temperature Precipitation Wind Pressure Humidity
00:00 -10°C° 0 mm 2 mps 734 mmHg 88%
01:00 -10°C° 0 mm 2 mps 734 mmHg 87%
02:00 -12°C° 0 mm 3 mps 733 mmHg 87%
03:00 -10°C° 0 mm 3 mps 733 mmHg 87%
04:00 -10°C° 0 mm 3 mps 732 mmHg 87%
05:00 -10°C° 0 mm 3 mps 731 mmHg 87%
06:00 -11°C° 0 mm 4 mps 731 mmHg 87%
07:00 -11°C° 0 mm 4 mps 730 mmHg 87%
08:00 -10°C° 0.4 mm 4 mps 730 mmHg 89%
09:00 -10°C° 0.4 mm 4 mps 730 mmHg 92%
10:00 -9°C° 0.4 mm 4 mps 730 mmHg 94%
11:00 -7°C° 0.2 mm 5 mps 730 mmHg 93%
12:00 -6°C° 0.2 mm 5 mps 731 mmHg 92%
13:00 -4°C° 0.2 mm 6 mps 731 mmHg 91%
14:00 -6°C° 0.1 mm 6 mps 731 mmHg 90%
15:00 -8°C° 0.1 mm 7 mps 731 mmHg 89%
16:00 -11°C° 0.1 mm 7 mps 732 mmHg 88%
17:00 -11°C° 0 mm 6 mps 732 mmHg 89%
18:00 -12°C° 0 mm 6 mps 733 mmHg 90%
19:00 -14°C° 0 mm 5 mps 733 mmHg 91%
20:00 -14°C° 0 mm 5 mps 733 mmHg 91%
21:00 -14°C° 0 mm 5 mps 734 mmHg 92%
22:00 -14°C° 0 mm 5 mps 734 mmHg 92%
23:00 -14°C° 0.2 mm 6 mps 733 mmHg 91%

Day after tomorrow, 17 January, Sunday

Time Temperature Precipitation Wind Pressure Humidity
00:00 -14°C° 0.2 mm 6 mps 732 mmHg 91%
01:00 -14°C° 0.2 mm 6 mps 732 mmHg 91%
02:00 -13°C° 0.1 mm 7 mps 731 mmHg 91%
03:00 -13°C° 0.1 mm 7 mps 731 mmHg 90%
04:00 -12°C° 0.1 mm 8 mps 731 mmHg 90%
05:00 -15°C° 0.3 mm 8 mps 731 mmHg 91%
06:00 -16°C° 0.3 mm 8 mps 731 mmHg 91%
07:00 -18°C° 0.3 mm 8 mps 732 mmHg 92%
08:00 -19°C° 0.4 mm 7 mps 732 mmHg 92%
09:00 -20°C° 0.4 mm 7 mps 733 mmHg 93%
10:00 -20°C° 0.4 mm 6 mps 734 mmHg 93%
11:00 -21°C° 0.1 mm 6 mps 734 mmHg 93%
12:00 -21°C° 0.1 mm 6 mps 735 mmHg 92%
13:00 -21°C° 0.1 mm 6 mps 735 mmHg 92%
14:00 -21°C° 0 mm 5 mps 736 mmHg 93%
15:00 -21°C° 0 mm 5 mps 736 mmHg 93%
16:00 -20°C° 0 mm 4 mps 737 mmHg 94%
17:00 -22°C° 0 mm 4 mps 737 mmHg 95%
18:00 -22°C° 0 mm 3 mps 737 mmHg 96%
19:00 -23°C° 0 mm 3 mps 738 mmHg 98%
20:00 -23°C° 0 mm 2 mps 738 mmHg 98%
21:00 -24°C° 0 mm 2 mps 738 mmHg 98%
22:00 -21°C° 0 mm 1 mps 739 mmHg 98%
23:00 -22°C° 0 mm 1 mps 739 mmHg 98%

18 January, Monday

Time Temperature Precipitation Wind Pressure Humidity
00:00 -22°C° 0 mm 1 mps 739 mmHg 98%
01:00 -22°C° 0 mm 1 mps 740 mmHg 97%
02:00 -22°C° 0 mm 1 mps 740 mmHg 97%
03:00 -23°C° 0 mm 1 mps 740 mmHg 97%
04:00 -23°C° 0 mm 1 mps 740 mmHg 97%
05:00 -23°C° 0 mm 1 mps 740 mmHg 97%
06:00 -23°C° 0 mm 0 mps 740 mmHg 96%
07:00 -23°C° 0 mm 0 mps 740 mmHg 96%
08:00 -22°C° 0 mm 0 mps 740 mmHg 95%
09:00 -21°C° 0 mm 0 mps 740 mmHg 94%
10:00 -20°C° 0 mm 0 mps 740 mmHg 93%
11:00 -18°C° 0 mm 0 mps 740 mmHg 91%
12:00 -17°C° 0 mm 1 mps 740 mmHg 89%
13:00 -15°C° 0 mm 1 mps 740 mmHg 88%
14:00 -16°C° 0 mm 1 mps 740 mmHg 90%
15:00 -17°C° 0 mm 1 mps 739 mmHg 93%
16:00 -18°C° 0 mm 1 mps 739 mmHg 95%
17:00 -18°C° 0 mm 1 mps 739 mmHg 95%
18:00 -18°C° 0 mm 1 mps 739 mmHg 94%
19:00 -18°C° 0 mm 1 mps 739 mmHg 94%
20:00 -18°C° 0 mm 1 mps 739 mmHg 93%
21:00 -18°C° 0 mm 1 mps 739 mmHg 92%
22:00 -17°C° 0 mm 1 mps 739 mmHg 91%
23:00 -17°C° 0 mm 1 mps 738 mmHg 91%

19 January, Tuesday

Time Temperature Precipitation Wind Pressure Humidity
00:00 -16°C° 0 mm 1 mps 738 mmHg 91%
01:00 -15°C° 0 mm 1 mps 738 mmHg 90%
02:00 -14°C° 0 mm 1 mps 738 mmHg 91%
03:00 -14°C° 0 mm 1 mps 738 mmHg 92%
04:00 -14°C° 0 mm 1 mps 738 mmHg 93%
05:00 -14°C° 0 mm 1 mps 737 mmHg 92%
06:00 -13°C° 0 mm 1 mps 737 mmHg 92%
07:00 -13°C° 0 mm 1 mps 737 mmHg 92%
08:00 -13°C° 0 mm 1 mps 737 mmHg 91%
09:00 -13°C° 0 mm 1 mps 737 mmHg 90%
10:00 -12°C° 0 mm 1 mps 736 mmHg 90%
11:00 -13°C° 0 mm 2 mps 736 mmHg 89%
12:00 -13°C° 0 mm 2 mps 736 mmHg 89%
13:00 -12°C° 0 mm 2 mps 736 mmHg 88%
14:00 -12°C° 0.5 mm 2 mps 736 mmHg 90%
15:00 -12°C° 0.5 mm 2 mps 735 mmHg 92%
16:00 -13°C° 0.5 mm 2 mps 735 mmHg 95%
17:00 -13°C° 0.6 mm 2 mps 735 mmHg 95%
18:00 -14°C° 0.6 mm 2 mps 735 mmHg 95%
19:00 -14°C° 0.6 mm 2 mps 735 mmHg 94%
20:00 -16°C° 0.4 mm 3 mps 735 mmHg 94%
21:00 -16°C° 0.4 mm 3 mps 735 mmHg 94%
22:00 -17°C° 0.4 mm 3 mps 736 mmHg 94%
23:00 -16°C° 0.3 mm 2 mps 736 mmHg 95%

20 January, Wednesday

Time Temperature Precipitation Wind Pressure Humidity
00:00 -16°C° 0.3 mm 2 mps 736 mmHg 95%
01:00 -17°C° 0.3 mm 2 mps 737 mmHg 95%
02:00 -17°C° 0.1 mm 2 mps 737 mmHg 95%
03:00 -16°C° 0.1 mm 1 mps 737 mmHg 95%
04:00 -16°C° 0.1 mm 1 mps 738 mmHg 95%
05:00 -17°C° 0 mm 1 mps 738 mmHg 95%
06:00 -17°C° 0 mm 1 mps 739 mmHg 95%
07:00 -17°C° 0 mm 1 mps 739 mmHg 94%
08:00 -17°C° 0 mm 1 mps 740 mmHg 94%
09:00 -16°C° 0 mm 1 mps 741 mmHg 93%
10:00 -16°C° 0 mm 1 mps 741 mmHg 93%
11:00 -15°C° 0 mm 1 mps 742 mmHg 90%
12:00 -14°C° 0 mm 1 mps 742 mmHg 87%
13:00 -14°C° 0 mm 0 mps 742 mmHg 84%
14:00 -14°C° 0 mm 0 mps 743 mmHg 87%
15:00 -14°C° 0 mm 0 mps 743 mmHg 90%
16:00 -15°C° 0 mm 0 mps 744 mmHg 93%
17:00 -16°C° 0 mm 0 mps 744 mmHg 94%
18:00 -17°C° 0 mm 0 mps 745 mmHg 95%
19:00 -18°C° 0 mm 0 mps 745 mmHg 96%
20:00 -18°C° 0 mm 0 mps 746 mmHg 97%
21:00 -19°C° 0 mm 0 mps 746 mmHg 98%
22:00 -20°C° 0 mm 0 mps 746 mmHg 98%
23:00 -21°C° 0 mm 0 mps 747 mmHg 98%
Show more